X  Close Clear throughout the day.
Conditions Temperature Feels Precipitation Wind Wind Direction UV index Pressure
05:00 clear-night Clear 11° - 10-15 mph East Easterly - 1028,7
06:00 clear-day Clear 12° - 10-15 mph East Easterly - 1028,4
07:00 clear-day Clear 13° - 10-15 mph East Easterly - 1028,1
08:00 clear-day Clear 14° - 10-14 mph East Easterly uv-1 1028,1
09:00 clear-day Clear 16° - 9-14 mph East Easterly uv-3 1028,0
10:00 clear-day Clear 18° - 9-13 mph ESE ESE uv-4 1027,7
11:00 clear-day Clear 20° - 10-14 mph ESE ESE uv-6 1027,4
12:00 clear-day Clear 21° - 10-14 mph ESE ESE uv-7 1027,1
13:00 clear-day Clear 21° - 11-14 mph ESE ESE uv-7 1026,7
14:00 clear-day Clear 22° - 10-14 mph ESE ESE uv-7 1026,2
15:00 clear-day Clear 22° - 10-14 mph ESE ESE uv-6 1025,3
16:00 clear-day Clear 22° - 9-14 mph ESE ESE uv-5 1024,8
17:00 clear-day Clear 22° - 9-13 mph ESE ESE uv-3 1024,2
18:00 clear-day Clear 22° - 8-12 mph ESE ESE uv-2 1023,9
19:00 clear-day Clear 22° - 7-11 mph ESE ESE uv-1 1023,6
20:00 clear-day Clear 21° - 7-11 mph ESE ESE - 1023,6
21:00 clear-day Clear 19° - 7-10 mph ESE ESE - 1023,9
22:00 clear-night Clear 17° - 7-10 mph ESE ESE - 1024,1
23:00 clear-night Clear 16° - 8-9 mph ESE ESE - 1024,2
00:00 clear-night Clear 15° - 8-9 mph East Easterly - 1024,0
01:00 clear-night Clear 14° - 8-8 mph East Easterly - 1024,0
02:00 clear-night Clear 13° - 8-9 mph East Easterly - 1023,9
03:00 clear-night Clear 11° - 8-9 mph East Easterly - 1023,6
04:00 clear-night Clear 11° - 8-10 mph ENE ENE - 1023,5
05:00 clear-night Clear 10° - 8-10 mph ENE ENE - 1023,5
06:00 clear-day Clear 10° - 9-11 mph ENE ENE - 1024,1
07:00 clear-day Clear 11° - 9-11 mph NE NE - 1024,0
08:00 clear-day Clear 13° - 9-11 mph ENE ENE uv-1 1023,9
09:00 clear-day Clear 15° - 9-12 mph ENE ENE uv-3 1023,8
10:00 clear-day Clear 18° - 9-13 mph ENE ENE uv-4 1023,7
11:00 clear-day Clear 19° - 8-13 mph ENE ENE uv-6 1023,5
12:00 clear-day Clear 21° - 8-12 mph East Easterly uv-7 1022,8
13:00 clear-day Clear 22° - 8-11 mph East Easterly uv-7 1022,5
14:00 clear-day Clear 22° - 8-11 mph East Easterly uv-7 1022,3
15:00 partly-cloudy-day Partly Cloudy 23° - 7-10 mph East Easterly uv-5 1022,0
16:00 partly-cloudy-day Partly Cloudy 23° - 8-11 mph East Easterly uv-4 1021,6
17:00 partly-cloudy-day Partly Cloudy 23° - 9-12 mph East Easterly uv-3 1021,2
18:00 partly-cloudy-day Partly Cloudy 23° - 10-14 mph East Easterly uv-2 1021,0
19:00 partly-cloudy-day Partly Cloudy 23° - 11-15 mph East Easterly uv-1 1020,9
20:00 partly-cloudy-day Partly Cloudy 22° - 11-15 mph East Easterly - 1021,2
21:00 clear-day Clear 20° - 10-14 mph East Easterly - 1022,0
22:00 clear-night Clear 18° - 10-14 mph East Easterly - 1022,1
23:00 clear-night Clear 17° - 10-14 mph East Easterly - 1022,4
00:00 clear-night Clear 16° - 10-13 mph East Easterly - 1022,6
01:00 clear-night Clear 15° - 10-12 mph East Easterly - 1022,8
02:00 clear-night Clear 14° - 10-12 mph ENE ENE - 1023,0
03:00 clear-night Clear 13° - 10-12 mph ENE ENE - 1023,0
04:00 clear-night Clear 12° - 10-13 mph ENE ENE - 1023,0
05:00 clear-night Clear 12° - 10-13 mph ENE ENE - 1023,1